Tracking 18843 objects as of 20-November-2017
HD Live streaming from Space Station
objects crossing your sky now

GSTAR 1

Track GSTAR 1 now!
GSTAR 1 is classified as:


NORAD ID: 15677
Int'l Code: 1985-035A
Perigee: 35,776.6 km
Apogee: 35,810.4 km
Inclination: 14.9 °
Period: 1,436.1 minutes
Semi major axis: 42164 km
RCS: 1.6993 m2 (large)
Launch date: May 8, 1985
Source: United States (US)
Launch site: FRENCH GUIANA (FRGUI)
aabbcc
Your satellite tracking list
Your tracking list is empty




NASA's NSSDC Master Catalog

Two Line Element Set (TLE):
1 15677U 85035A   17323.53126120 -.00000114 +00000-0 +00000-0 0  9990
2 15677 014.9023 015.6817 0004008 315.5219 173.7049 01.00272549093804
Source of the keplerian elements: AFSPC